Date String (YYYY-MM-DD hh:mm:ss) UTC,Instrument flags,absolute air pressure of the measurement (hPa),sample flow rate (lpm),inlet stack bypass flow (lpm),air temperature of the measurement (°C),ambient temperature measured by the external sensor (°C),aerosol sample conditioner tube jacket temperature (°C),OPC LED temperature (°C),internal box temperature (°C),relative humidity of the measurement (%),span deviation,mass concentration of particles derived from Lorenz-Mie calculation of OPC scattering (μg/m³),mass concentration of particles derived from Lorenz-Mie calculation of OPC scattering (μg/m³),mass concentration of particles derived from Lorenz-Mie calculation of OPC scattering (μg/m³)
DateTimeUTC,F1_M11,P_M11,Q1_M11,Q2_M11,T1_M11,T2_M11,T3_M11,T4_M11,T5_M11,U1_M11,ZSPAN_M11,X2_M11,X0_M11,X1_M11
2023-09-20 15:00:00,SystemResetWarning,0829.4,5.01,000.00,028.4,027.0,000.0,036.8,030.0,22.6,0000.0,0002.12,0003.49,0001.64
2023-09-20 15:01:00,SystemResetWarning,0829.4,5.00,000.00,028.4,027.1,000.0,036.8,030.0,21.9,0000.0,0002.12,0003.41,0001.66
2023-09-20 15:02:00,SystemResetWarning,0829.4,5.00,000.00,028.5,027.1,000.0,036.8,030.1,21.6,0000.0,0002.09,0003.35,0001.65
2023-09-20 15:03:00,SystemResetWarning,0829.5,5.00,000.00,028.5,027.2,000.0,036.8,030.2,22.3,0000.0,0002.06,0004.21,0001.65
2023-09-20 15:04:00,SystemResetWarning,0829.4,5.00,000.00,028.5,027.3,000.0,036.8,030.2,22.2,0000.0,0002.03,0005.05,0001.65
2023-09-20 15:05:00,SystemResetWarning,0829.4,5.00,000.00,028.5,027.3,000.0,036.8,030.2,22.3,0000.0,0002.01,0005.03,0001.64
2023-09-20 15:06:00,SystemResetWarning,0829.4,5.00,000.00,028.6,027.4,000.0,036.8,030.2,22.2,0000.0,0001.98,0004.88,0001.63
2023-09-20 15:07:00,SystemResetWarning,0829.3,5.00,000.00,028.6,027.4,000.0,036.9,030.3,20.7,0000.0,0001.97,0004.71,0001.61
2023-09-20 15:08:00,SystemResetWarning,0829.3,5.01,000.00,028.6,027.5,000.0,036.9,030.3,20.5,0000.0,0001.97,0004.52,0001.60
2023-09-20 15:09:00,SystemResetWarning,0829.3,5.00,000.00,028.6,026.9,000.0,036.9,030.2,20.6,0000.0,0001.96,0004.50,0001.59
2023-09-20 15:10:00,SystemResetWarning,0829.3,4.99,000.00,028.5,025.3,000.0,036.8,029.6,21.1,0000.0,0001.94,0004.40,0001.59
2023-09-20 15:11:00,SystemResetWarning,0829.4,5.01,000.00,028.4,024.6,000.0,036.8,029.5,20.5,0000.0,0001.92,0004.38,0001.58
2023-09-20 15:12:00,SystemResetWarning,0829.4,5.01,000.00,028.3,024.8,000.0,036.7,029.5,20.4,0000.0,0001.91,0004.36,0001.56
2023-09-20 15:13:00,SystemResetWarning,0829.3,5.00,000.00,028.3,025.1,000.0,036.7,029.5,20.0,0000.0,0001.90,0004.34,0001.55
2023-09-20 15:14:00,SystemResetWarning,0829.4,5.00,000.00,028.2,025.4,000.0,036.7,029.5,19.2,0000.0,0001.91,0003.93,0001.55
2023-09-20 15:15:00,SystemResetWarning,0829.3,4.99,000.00,028.2,025.8,000.0,036.7,029.6,18.3,0000.0,0001.91,0002.54,0001.55
2023-09-20 15:16:00,SystemResetWarning,0829.3,5.00,000.00,028.2,026.0,000.0,036.7,029.6,18.2,0000.0,0001.93,0002.59,0001.55
2023-09-20 15:17:00,SystemResetWarning,0829.3,5.00,000.00,028.2,026.3,000.0,036.7,029.7,19.2,0000.0,0001.96,0002.72,0001.54
2023-09-20 15:18:00,SystemResetWarning,0829.3,5.00,000.00,028.3,026.5,000.0,036.7,029.8,20.9,0000.0,0001.97,0002.77,0001.54
2023-09-20 15:19:00,SystemResetWarning,0829.3,5.01,000.00,028.3,026.6,000.0,036.7,029.8,20.6,0000.0,0001.96,0002.75,0001.55
2023-09-20 15:20:00,SystemResetWarning,0829.4,5.00,000.00,028.3,026.8,000.0,036.7,029.9,20.1,0000.0,0002.04,0003.16,0001.58
2023-09-20 15:21:00,SystemResetWarning,0829.4,5.00,000.00,028.3,026.9,000.0,036.7,030.0,20.7,0000.0,0002.10,0003.42,0001.60
2023-09-20 15:22:00,SystemResetWarning,0829.4,5.00,000.00,028.4,027.0,000.0,036.7,030.0,21.2,0000.0,0002.14,0003.49,0001.61
2023-09-20 15:23:00,SystemResetWarning,0829.5,5.00,000.00,028.4,027.1,000.0,036.7,030.0,20.8,0000.0,0002.27,0003.79,0001.63
2023-09-20 15:24:00,SystemResetWarning,0829.5,4.99,000.00,028.4,027.2,000.0,036.7,030.0,20.8,0000.0,0002.31,0003.91,0001.66
2023-09-20 15:25:00,SystemResetWarning,0829.5,5.00,000.00,028.4,027.3,000.0,036.7,030.1,21.5,0000.0,0002.35,0004.03,0001.68
2023-09-20 15:26:00,SystemResetWarning,0829.6,4.99,000.00,028.5,027.3,000.0,036.8,030.1,22.0,0000.0,0002.40,0004.14,0001.70
2023-09-20 15:27:00,SystemResetWarning,0829.6,5.00,000.00,028.5,026.9,000.0,036.8,030.1,21.2,0000.0,0002.47,0004.92,0001.72
2023-09-20 15:28:00,SystemResetWarning,0829.5,5.00,000.00,028.4,025.4,000.0,036.7,029.6,21.0,0000.0,0002.51,0007.63,0001.73
2023-09-20 15:29:00,SystemResetWarning,0829.5,5.00,000.00,028.3,024.6,000.0,036.7,029.4,21.2,0000.0,0002.54,0007.80,0001.76
2023-09-20 15:30:00,SystemResetWarning,0829.6,5.01,000.00,028.2,024.7,000.0,036.6,029.4,20.9,0000.0,0002.60,0007.99,0001.77
2023-09-20 15:31:00,SystemResetWarning,0829.6,5.01,000.00,028.1,025.0,000.0,036.6,029.4,21.0,0000.0,0002.55,0008.04,0001.76
2023-09-20 15:32:00,SystemResetWarning,0829.7,4.99,000.00,028.1,025.3,000.0,036.6,029.4,20.9,0000.0,0002.51,0008.34,0001.76
2023-09-20 15:33:00,SystemResetWarning,0829.6,5.00,000.00,028.1,025.6,000.0,036.6,029.5,21.1,0000.0,0002.53,0008.61,0001.76
2023-09-20 15:34:00,SystemResetWarning,0829.7,5.00,000.00,028.1,025.9,000.0,036.6,029.5,20.7,0000.0,0002.46,0008.74,0001.77
2023-09-20 15:35:00,SystemResetWarning,0829.7,5.01,000.00,028.1,026.2,000.0,036.5,029.6,20.5,0000.0,0002.49,0009.80,0001.78
2023-09-20 15:36:00,SystemResetWarning,0829.7,5.01,000.00,028.1,026.4,000.0,036.6,029.7,20.9,0000.0,0002.46,0009.76,0001.77
2023-09-20 15:37:00,SystemResetWarning,0829.7,5.00,000.00,028.2,026.6,000.0,036.6,029.7,21.0,0000.0,0002.45,0009.77,0001.75
2023-09-20 15:38:00,SystemResetWarning,0829.7,5.00,000.00,028.2,026.7,000.0,036.6,029.8,21.5,0000.0,0002.42,0009.47,0001.75
2023-09-20 15:39:00,SystemResetWarning,0829.7,5.00,000.00,028.2,026.8,000.0,036.6,029.8,22.0,0000.0,0002.38,0008.06,0001.75
2023-09-20 15:40:00,SystemResetWarning,0829.7,5.00,000.00,028.3,027.0,000.0,036.6,029.9,22.0,0000.0,0002.38,0008.49,0001.73
2023-09-20 15:41:00,SystemResetWarning,0829.7,5.00,000.00,028.3,027.1,000.0,036.6,029.9,21.7,0000.0,0002.32,0008.35,0001.73
2023-09-20 15:42:00,SystemResetWarning,0829.7,4.99,000.00,028.3,027.1,000.0,036.6,029.9,21.9,0000.0,0002.33,0008.17,0001.74
2023-09-20 15:43:00,SystemResetWarning,0829.7,5.00,000.00,028.4,027.2,000.0,036.6,030.0,21.7,0000.0,0002.35,0007.89,0001.73
2023-09-20 15:44:00,SystemResetWarning,0829.7,5.00,000.00,028.4,027.3,000.0,036.7,030.0,21.5,0000.0,0002.33,0007.63,0001.72
2023-09-20 15:45:00,SystemResetWarning,0829.7,4.99,000.00,028.4,026.3,000.0,036.6,029.8,21.2,0000.0,0002.32,0007.78,0001.70
2023-09-20 15:46:00,SystemResetWarning,0829.7,5.00,000.00,028.3,024.7,000.0,036.6,029.4,21.5,0000.0,0002.25,0006.85,0001.68
2023-09-20 15:47:00,SystemResetWarning,0829.7,5.01,000.00,028.2,024.5,000.0,036.5,029.4,21.4,0000.0,0002.28,0007.25,0001.68
2023-09-20 15:48:00,SystemResetWarning,0829.7,5.01,000.00,028.1,024.8,000.0,036.5,029.4,21.7,0000.0,0002.30,0007.30,0001.68
2023-09-20 15:49:00,SystemResetWarning,0829.7,5.00,000.00,028.1,025.1,000.0,036.5,029.3,21.5,0000.0,0002.27,0007.10,0001.66
2023-09-20 15:50:00,SystemResetWarning,0829.7,5.00,000.00,028.0,025.4,000.0,036.5,029.4,21.7,0000.0,0002.23,0006.48,0001.66
2023-09-20 15:51:00,SystemResetWarning,0829.7,4.99,000.00,028.0,025.7,000.0,036.5,029.4,22.0,0000.0,0002.18,0005.40,0001.65
2023-09-20 15:52:00,SystemResetWarning,0829.7,5.00,000.00,028.1,026.0,000.0,036.5,029.5,22.1,0000.0,0002.16,0005.27,0001.63
2023-09-20 15:53:00,SystemResetWarning,0829.7,5.01,000.00,028.1,026.2,000.0,036.5,029.6,21.7,0000.0,0002.10,0005.12,0001.61
2023-09-20 15:54:00,SystemResetWarning,0829.7,5.01,000.00,028.1,026.4,000.0,036.5,029.6,21.4,0000.0,0002.08,0004.79,0001.60
2023-09-20 15:55:00,SystemResetWarning,0829.7,5.00,000.00,028.1,026.6,000.0,036.5,029.7,20.8,0000.0,0002.08,0004.94,0001.60
2023-09-20 15:56:00,SystemResetWarning,0829.7,4.99,000.00,028.2,026.8,000.0,036.5,029.7,21.1,0000.0,0002.07,0004.35,0001.59
2023-09-20 15:57:00,SystemResetWarning,0829.7,4.99,000.00,028.2,026.9,000.0,036.5,029.8,20.9,0000.0,0002.06,0003.54,0001.59
2023-09-20 15:58:00,SystemResetWarning,0829.7,5.01,000.00,028.2,027.0,000.0,036.5,029.8,21.4,0000.0,0002.05,0003.10,0001.59
2023-09-20 15:59:00,SystemResetWarning,0829.7,5.01,000.00,028.3,027.1,000.0,036.5,029.9,21.5,0000.0,0002.05,0003.02,0001.60
